Time,TemperatureF,DewpointF,PressureIn,WindDirection,WindDirectionDegrees,WindSpeedMPH,WindSpeedGustMPH,Humidity,HourlyPrecipIn,Conditions,Clouds,dailyrainin,SoftwareType,DateUTC
2013-06-30 00:02:00,65.0,57.0,29.98,North,360,1.0,1.0,76,0.00,,,0.00,,2013-06-30 05:02:00,
2013-06-30 00:12:00,63.0,57.0,29.99,NNW,333,2.0,3.0,81,0.00,,,0.00,,2013-06-30 05:12:00,
2013-06-30 00:22:00,61.0,56.0,30.00,NNW,333,2.0,3.0,85,0.00,,,0.00,,2013-06-30 05:22:00,
2013-06-30 00:33:00,61.0,57.0,30.00,NNW,333,1.0,3.0,87,0.00,,,0.00,,2013-06-30 05:33:00,
2013-06-30 00:43:00,62.0,57.0,30.00,NNW,333,2.0,2.0,85,0.00,,,0.00,,2013-06-30 05:43:00,
2013-06-30 00:53:00,61.0,57.0,29.99,NNW,333,2.0,3.0,86,0.00,,,0.00,,2013-06-30 05:53:00,
2013-06-30 01:02:00,62.0,57.0,30.00,WNW,296,2.0,3.0,84,0.00,,,0.00,,2013-06-30 06:02:00,
2013-06-30 01:23:00,62.0,57.0,30.00,WNW,284,2.0,3.0,84,0.00,,,0.00,,2013-06-30 06:23:00,
2013-06-30 01:33:00,62.0,57.0,30.00,WNW,284,3.0,4.0,83,0.00,,,0.00,,2013-06-30 06:33:00,
2013-06-30 01:43:00,62.0,57.0,30.00,WNW,292,2.0,4.0,83,0.00,,,0.00,,2013-06-30 06:43:00,
2013-06-30 01:53:00,62.0,57.0,30.00,WNW,302,2.0,4.0,83,0.00,,,0.00,,2013-06-30 06:53:00,
2013-06-30 02:02:00,62.0,57.0,30.00,WNW,296,1.0,4.0,84,0.00,,,0.00,,2013-06-30 07:02:00,
2013-06-30 02:12:00,61.0,56.0,30.00,WNW,297,0.0,2.0,84,0.00,,,0.00,,2013-06-30 07:12:00,
2013-06-30 02:22:00,61.0,56.0,30.00,NW,312,2.0,4.0,85,0.00,,,0.00,,2013-06-30 07:22:00,
2013-06-30 02:33:00,61.0,56.0,30.00,NW,311,2.0,3.0,85,0.00,,,0.00,,2013-06-30 07:33:00,
2013-06-30 02:44:00,61.0,56.0,30.00,WNW,301,2.0,4.0,85,0.00,,,0.00,,2013-06-30 07:44:00,
2013-06-30 02:53:00,61.0,56.0,30.01,NW,305,1.0,3.0,85,0.00,,,0.00,,2013-06-30 07:53:00,
2013-06-30 03:02:00,61.0,56.0,30.01,NW,319,1.0,3.0,85,0.00,,,0.00,,2013-06-30 08:02:00,
2013-06-30 03:11:00,60.0,56.0,30.01,NW,311,2.0,4.0,86,0.00,,,0.00,,2013-06-30 08:11:00,
2013-06-30 03:22:00,60.0,56.0,30.01,NW,325,1.0,4.0,87,0.00,,,0.00,,2013-06-30 08:22:00,
2013-06-30 03:33:00,60.0,56.0,30.01,NW,324,1.0,2.0,87,0.00,,,0.00,,2013-06-30 08:33:00,
2013-06-30 03:42:00,60.0,56.0,30.01,WNW,299,2.0,4.0,88,0.00,,,0.00,,2013-06-30 08:42:00,
2013-06-30 03:53:00,60.0,56.0,30.01,NNW,327,3.0,5.0,88,0.00,,,0.00,,2013-06-30 08:53:00,
2013-06-30 04:01:00,60.0,56.0,30.01,NW,311,2.0,6.0,88,0.00,,,0.00,,2013-06-30 09:01:00,
2013-06-30 04:12:00,60.0,56.0,30.01,NW,315,3.0,5.0,88,0.00,,,0.00,,2013-06-30 09:12:00,
2013-06-30 04:23:00,60.0,57.0,30.01,NNW,328,2.0,5.0,89,0.00,,,0.00,,2013-06-30 09:23:00,
2013-06-30 04:33:00,60.0,57.0,30.01,NW,313,1.0,5.0,89,0.00,,,0.00,,2013-06-30 09:33:00,
2013-06-30 04:43:00,60.0,57.0,30.01,NNW,345,2.0,4.0,89,0.00,,,0.00,,2013-06-30 09:43:00,
2013-06-30 04:53:00,59.0,56.0,30.01,NNW,331,1.0,4.0,89,0.00,,,0.00,,2013-06-30 09:53:00,
2013-06-30 05:02:00,59.0,56.0,30.01,NW,304,1.0,4.0,89,0.00,,,0.00,,2013-06-30 10:02:00,
2013-06-30 05:11:00,59.0,56.0,30.01,NW,306,0.0,2.0,90,0.00,,,0.00,,2013-06-30 10:11:00,
2013-06-30 05:22:00,59.0,56.0,30.02,NW,308,0.0,2.0,90,0.00,,,0.00,,2013-06-30 10:22:00,
2013-06-30 05:33:00,59.0,56.0,30.02,NW,308,0.0,2.0,91,0.00,,,0.00,,2013-06-30 10:33:00,
2013-06-30 05:42:00,59.0,56.0,30.03,NW,307,1.0,2.0,91,0.00,,,0.00,,2013-06-30 10:42:00,
2013-06-30 05:53:00,59.0,56.0,30.03,NW,304,0.0,4.0,91,0.00,,,0.00,,2013-06-30 10:53:00,
2013-06-30 06:02:00,59.0,57.0,30.03,NW,304,1.0,2.0,92,0.00,,,0.00,,2013-06-30 11:02:00,
2013-06-30 06:11:00,58.0,55.0,30.03,West,273,2.0,4.0,91,0.00,,,0.00,,2013-06-30 11:11:00,
2013-06-30 06:22:00,58.0,56.0,30.03,West,273,1.0,2.0,92,0.00,,,0.00,,2013-06-30 11:22:00,
2013-06-30 06:33:00,58.0,56.0,30.03,West,273,1.0,2.0,92,0.00,,,0.00,,2013-06-30 11:33:00,
2013-06-30 06:43:00,58.0,56.0,30.04,West,273,2.0,3.0,93,0.00,,,0.00,,2013-06-30 11:43:00,
2013-06-30 06:53:00,58.0,56.0,30.04,West,273,1.0,3.0,92,0.00,,,0.00,,2013-06-30 11:53:00,
2013-06-30 07:01:00,58.0,56.0,30.04,West,273,0.0,0.0,93,0.00,,,0.00,,2013-06-30 12:01:00,
2013-06-30 07:24:00,58.0,56.0,30.06,West,277,2.0,3.0,93,0.00,,,0.00,,2013-06-30 12:24:00,
2013-06-30 07:33:00,59.0,57.0,30.06,West,277,0.0,3.0,94,0.00,,,0.00,,2013-06-30 12:33:00,
2013-06-30 07:43:00,60.0,58.0,30.06,WNW,296,0.0,0.0,93,0.00,,,0.00,,2013-06-30 12:43:00,
2013-06-30 07:52:00,61.0,59.0,30.06,NW,318,2.0,4.0,92,0.00,,,0.00,,2013-06-30 12:52:00,
2013-06-30 08:02:00,62.0,59.0,30.07,NW,309,3.0,6.0,90,0.00,,,0.00,,2013-06-30 13:02:00,
2013-06-30 08:12:00,62.0,59.0,30.08,NW,314,2.0,5.0,90,0.00,,,0.00,,2013-06-30 13:12:00,
2013-06-30 08:22:00,63.0,60.0,30.08,NNW,336,1.0,5.0,89,0.00,,,0.00,,2013-06-30 13:22:00,
2013-06-30 08:33:00,64.0,60.0,30.08,NNW,341,2.0,6.0,86,0.00,,,0.00,,2013-06-30 13:33:00,
2013-06-30 08:43:00,65.0,60.0,30.09,NNE,16,3.0,6.0,84,0.00,,,0.00,,2013-06-30 13:43:00,
2013-06-30 08:53:00,66.0,60.0,30.08,NNE,31,3.0,9.0,82,0.00,,,0.00,,2013-06-30 13:53:00,
2013-06-30 09:02:00,67.0,60.0,30.08,NNE,22,4.0,7.0,79,0.00,,,0.00,,2013-06-30 14:02:00,
2013-06-30 09:11:00,67.0,60.0,30.08,NNE,24,4.0,8.0,77,0.00,,,0.00,,2013-06-30 14:11:00,
2013-06-30 09:22:00,68.0,59.0,30.08,ENE,57,5.0,9.0,74,0.00,,,0.00,,2013-06-30 14:22:00,
2013-06-30 09:33:00,69.0,60.0,30.08,NNE,28,5.0,9.0,72,0.00,,,0.00,,2013-06-30 14:33:00,
2013-06-30 09:44:00,69.0,59.0,30.09,NE,36,4.0,7.0,71,0.00,,,0.00,,2013-06-30 14:44:00,
2013-06-30 09:52:00,70.0,59.0,30.09,ENE,57,5.0,8.0,67,0.00,,,0.00,,2013-06-30 14:52:00,
2013-06-30 10:02:00,70.0,59.0,30.09,ENE,69,4.0,10.0,68,0.00,,,0.00,,2013-06-30 15:02:00,
2013-06-30 10:12:00,70.0,59.0,30.09,North,11,4.0,8.0,68,0.00,,,0.00,,2013-06-30 15:12:00,
2013-06-30 10:23:00,71.0,59.0,30.09,ENE,71,5.0,8.0,66,0.00,,,0.00,,2013-06-30 15:23:00,
2013-06-30 10:34:00,72.0,60.0,30.09,NNE,22,5.0,8.0,65,0.00,,,0.00,,2013-06-30 15:34:00,
2013-06-30 10:44:00,72.0,60.0,30.09,NNE,30,4.0,9.0,65,0.00,,,0.00,,2013-06-30 15:44:00,
2013-06-30 10:53:00,73.0,60.0,30.08,NE,34,4.0,9.0,63,0.00,,,0.00,,2013-06-30 15:53:00,
2013-06-30 11:01:00,73.0,59.0,30.09,NE,51,6.0,8.0,61,0.00,,,0.00,,2013-06-30 16:01:00,
2013-06-30 11:11:00,73.0,59.0,30.08,NNE,13,4.0,9.0,61,0.00,,,0.00,,2013-06-30 16:11:00,
2013-06-30 11:21:00,73.0,59.0,30.08,NNW,346,6.0,10.0,61,0.00,,,0.00,,2013-06-30 16:21:00,
2013-06-30 11:34:00,73.0,58.0,30.08,North,351,7.0,12.0,60,0.00,,,0.00,,2013-06-30 16:34:00,
2013-06-30 11:44:00,74.0,59.0,30.08,NE,41,7.0,11.0,60,0.00,,,0.00,,2013-06-30 16:44:00,
2013-06-30 11:53:00,73.0,58.0,30.08,NNW,331,7.0,12.0,59,0.00,,,0.00,,2013-06-30 16:53:00,
2013-06-30 12:01:00,74.0,59.0,30.08,NNE,25,8.0,12.0,59,0.00,,,0.00,,2013-06-30 17:01:00,
2013-06-30 12:11:00,75.0,59.0,30.08,NE,39,5.0,13.0,58,0.00,,,0.00,,2013-06-30 17:11:00,
2013-06-30 12:23:00,74.0,57.0,30.09,NNE,19,7.0,12.0,56,0.00,,,0.00,,2013-06-30 17:23:00,
2013-06-30 12:34:00,74.0,56.0,30.09,NE,37,8.0,14.0,54,0.00,,,0.00,,2013-06-30 17:34:00,
2013-06-30 12:43:00,74.0,55.0,30.08,NNE,33,9.0,15.0,52,0.00,,,0.00,,2013-06-30 17:43:00,
2013-06-30 12:52:00,75.0,57.0,30.08,North,360,8.0,15.0,54,0.00,,,0.00,,2013-06-30 17:52:00,
2013-06-30 13:02:00,75.0,57.0,30.08,ENE,59,8.0,16.0,53,0.00,,,0.00,,2013-06-30 18:02:00,
2013-06-30 13:12:00,76.0,57.0,30.08,ENE,59,7.0,12.0,52,0.00,,,0.00,,2013-06-30 18:12:00,
2013-06-30 13:22:00,77.0,57.0,30.08,NE,36,5.0,17.0,51,0.00,,,0.00,,2013-06-30 18:22:00,
2013-06-30 13:34:00,77.0,57.0,30.08,NE,40,7.0,17.0,50,0.00,,,0.00,,2013-06-30 18:34:00,
2013-06-30 13:43:00,75.0,56.0,30.08,NNE,28,6.0,13.0,52,0.00,,,0.00,,2013-06-30 18:43:00,
2013-06-30 13:53:00,76.0,56.0,30.08,NE,47,8.0,15.0,50,0.00,,,0.00,,2013-06-30 18:53:00,
2013-06-30 14:01:00,76.0,58.0,30.08,NNE,30,6.0,16.0,53,0.00,,,0.00,,2013-06-30 19:01:00,
2013-06-30 14:11:00,76.0,55.0,30.08,NNE,26,10.0,17.0,48,0.00,,,0.00,,2013-06-30 19:11:00,
2013-06-30 14:22:00,76.0,55.0,30.07,NE,46,7.0,14.0,48,0.00,,,0.00,,2013-06-30 19:22:00,
2013-06-30 14:33:00,75.0,56.0,30.07,ENE,61,8.0,19.0,51,0.00,,,0.00,,2013-06-30 19:33:00,
2013-06-30 14:43:00,77.0,56.0,30.07,ENE,58,7.0,16.0,48,0.00,,,0.00,,2013-06-30 19:43:00,
2013-06-30 14:53:00,77.0,56.0,30.07,NNE,12,8.0,15.0,49,0.00,,,0.00,,2013-06-30 19:53:00,
2013-06-30 15:01:00,77.0,56.0,30.07,East,83,9.0,13.0,49,0.00,,,0.00,,2013-06-30 20:01:00,
2013-06-30 15:11:00,77.0,56.0,30.07,NE,42,8.0,17.0,48,0.00,,,0.00,,2013-06-30 20:11:00,
2013-06-30 15:22:00,77.0,55.0,30.07,North,355,7.0,14.0,47,0.00,,,0.00,,2013-06-30 20:22:00,
2013-06-30 15:34:00,78.0,56.0,30.07,NNE,21,8.0,14.0,47,0.00,,,0.00,,2013-06-30 20:34:00,
2013-06-30 15:42:00,77.0,55.0,30.06,North,5,10.0,16.0,47,0.00,,,0.00,,2013-06-30 20:42:00,
2013-06-30 15:52:00,77.0,54.0,30.06,NNE,21,9.0,15.0,45,0.00,,,0.00,,2013-06-30 20:52:00,
2013-06-30 16:01:00,77.0,56.0,30.06,NNW,345,6.0,14.0,48,0.00,,,0.00,,2013-06-30 21:01:00,
2013-06-30 16:11:00,77.0,56.0,30.06,NNW,346,5.0,15.0,48,0.00,,,0.00,,2013-06-30 21:11:00,
2013-06-30 16:22:00,77.0,55.0,30.07,ENE,60,7.0,12.0,46,0.00,,,0.00,,2013-06-30 21:22:00,
2013-06-30 16:34:00,77.0,55.0,30.07,NNE,12,7.0,15.0,46,0.00,,,0.00,,2013-06-30 21:34:00,
2013-06-30 16:42:00,77.0,55.0,30.07,North,360,7.0,17.0,47,0.00,,,0.00,,2013-06-30 21:42:00,
2013-06-30 16:53:00,76.0,53.0,30.07,ENE,66,7.0,15.0,45,0.00,,,0.00,,2013-06-30 21:53:00,
2013-06-30 17:01:00,77.0,53.0,30.07,NE,40,7.0,12.0,44,0.00,,,0.00,,2013-06-30 22:01:00,
2013-06-30 17:11:00,76.0,54.0,30.07,NNE,30,9.0,16.0,46,0.00,,,0.00,,2013-06-30 22:11:00,
2013-06-30 17:22:00,76.0,54.0,30.07,NE,51,6.0,16.0,47,0.00,,,0.00,,2013-06-30 22:22:00,
2013-06-30 17:34:00,76.0,54.0,30.07,North,5,7.0,13.0,46,0.00,,,0.00,,2013-06-30 22:34:00,
2013-06-30 17:43:00,76.0,52.0,30.07,NNE,24,7.0,15.0,44,0.00,,,0.00,,2013-06-30 22:43:00,
2013-06-30 17:52:00,76.0,52.0,30.07,NE,37,9.0,17.0,44,0.00,,,0.00,,2013-06-30 22:52:00,
2013-06-30 18:01:00,76.0,53.0,30.07,NE,37,5.0,12.0,45,0.00,,,0.00,,2013-06-30 23:01:00,
2013-06-30 18:11:00,76.0,52.0,30.07,NNE,16,7.0,12.0,44,0.00,,,0.00,,2013-06-30 23:11:00,
2013-06-30 18:22:00,76.0,52.0,30.07,NE,47,6.0,11.0,44,0.00,,,0.00,,2013-06-30 23:22:00,
2013-06-30 18:33:00,75.0,53.0,30.07,NE,43,4.0,9.0,46,0.00,,,0.00,,2013-06-30 23:33:00,
2013-06-30 18:43:00,75.0,53.0,30.07,NE,38,6.0,13.0,46,0.00,,,0.00,,2013-06-30 23:43:00,
2013-06-30 18:53:00,75.0,54.0,30.07,ENE,78,5.0,8.0,48,0.00,,,0.00,,2013-06-30 23:53:00,
2013-06-30 19:01:00,75.0,54.0,30.07,NNE,24,5.0,12.0,48,0.00,,,0.00,,2013-07-01 00:01:00,
2013-06-30 19:11:00,74.0,53.0,30.07,NNE,16,7.0,12.0,48,0.00,,,0.00,,2013-07-01 00:11:00,
2013-06-30 19:22:00,74.0,53.0,30.07,NE,49,5.0,10.0,48,0.00,,,0.00,,2013-07-01 00:22:00,
2013-06-30 19:33:00,74.0,53.0,30.08,NE,53,6.0,10.0,48,0.00,,,0.00,,2013-07-01 00:33:00,
2013-06-30 19:42:00,74.0,54.0,30.08,ENE,62,5.0,10.0,49,0.00,,,0.00,,2013-07-01 00:42:00,
2013-06-30 19:52:00,74.0,54.0,30.08,NE,49,5.0,9.0,49,0.00,,,0.00,,2013-07-01 00:52:00,
2013-06-30 20:01:00,74.0,54.0,30.08,North,360,3.0,9.0,50,0.00,,,0.00,,2013-07-01 01:01:00,
2013-06-30 20:11:00,73.0,54.0,30.08,ENE,65,4.0,8.0,51,0.00,,,0.00,,2013-07-01 01:11:00,
2013-06-30 20:22:00,73.0,54.0,30.08,ENE,65,4.0,8.0,51,0.00,,,0.00,,2013-07-01 01:22:00,
2013-06-30 20:33:00,73.0,54.0,30.08,NE,34,3.0,8.0,51,0.00,,,0.00,,2013-07-01 01:33:00,
2013-06-30 20:42:00,72.0,54.0,30.08,NE,46,1.0,5.0,54,0.00,,,0.00,,2013-07-01 01:42:00,
2013-06-30 20:52:00,71.0,54.0,30.08,NNE,26,2.0,4.0,55,0.00,,,0.00,,2013-07-01 01:52:00,
2013-06-30 21:02:00,70.0,54.0,30.08,NNE,18,0.0,3.0,57,0.00,,,0.00,,2013-07-01 02:02:00,
2013-06-30 21:11:00,69.0,54.0,30.09,NNE,17,0.0,2.0,59,0.00,,,0.00,,2013-07-01 02:11:00,
2013-06-30 21:22:00,68.0,54.0,30.09,NNE,17,0.0,2.0,62,0.00,,,0.00,,2013-07-01 02:22:00,
2013-06-30 21:43:00,66.0,54.0,30.09,NNE,17,0.0,0.0,66,0.00,,,0.00,,2013-07-01 02:43:00,
2013-06-30 21:53:00,66.0,55.0,30.10,NNE,17,0.0,0.0,67,0.00,,,0.00,,2013-07-01 02:53:00,
2013-06-30 22:01:00,65.0,55.0,30.10,NNE,17,0.0,0.0,69,0.00,,,0.00,,2013-07-01 03:01:00,
2013-06-30 22:11:00,65.0,55.0,30.10,NNE,17,0.0,0.0,69,0.00,,,0.00,,2013-07-01 03:11:00,
2013-06-30 22:23:00,65.0,55.0,30.11,NNE,17,0.0,0.0,69,0.00,,,0.00,,2013-07-01 03:23:00,
2013-06-30 22:33:00,62.0,54.0,30.11,NNE,17,0.0,0.0,74,0.00,,,0.00,,2013-07-01 03:33:00,
2013-06-30 22:43:00,62.0,54.0,30.11,NNE,17,0.0,0.0,75,0.00,,,0.00,,2013-07-01 03:43:00,
2013-06-30 22:52:00,61.0,54.0,30.12,North,349,0.0,0.0,77,0.00,,,0.00,,2013-07-01 03:52:00,
2013-06-30 23:01:00,60.0,53.0,30.12,North,349,1.0,3.0,79,0.00,,,0.00,,2013-07-01 04:01:00,
2013-06-30 23:11:00,60.0,54.0,30.12,North,349,1.0,2.0,80,0.00,,,0.00,,2013-07-01 04:11:00,
2013-06-30 23:22:00,60.0,54.0,30.12,North,349,1.0,2.0,80,0.00,,,0.00,,2013-07-01 04:22:00,
2013-06-30 23:32:00,60.0,54.0,30.12,North,349,1.0,2.0,80,0.00,,,0.00,,2013-07-01 04:32:00,
2013-06-30 23:42:00,60.0,54.0,30.12,North,349,1.0,2.0,80,0.00,,,0.00,,2013-07-01 04:42:00,
2013-06-30 23:53:00,59.0,54.0,30.13,North,349,1.0,3.0,83,0.00,,,0.00,,2013-07-01 04:53:00,